Flag for Austria Weather past 2 weeks in Bruck an der Leitha, Lower Austria, Austria

Now
40 °F

Sprinkles. Overcast.


Feels Like: 34 °F
Forecast: 38 / 46 °F
Wind: 10 mph from West

Location: Wien / Schwechat-Flughafen

Current Time: Apr 1, 2015 at 10:17:16 AM

Latest Report: Apr 1, 2015 at 9:00 AM


Visibility: 7 mi

Pressure: 29.86 "Hg

Humidity: 71%

Dew point: 32 °F

Location of Bruck an der LeithaLocation

Historic Weather in Bruck an der Leitha — Graph

°F

Bruck an der Leitha temperature yesterday

Maximum temperature yesterday: 62 °F (at 3:00 PM)
Minimum temperature yesterday: 39 °F (at 9:00 AM)
Average temperature yesterday: 47 °F

Past Weeks' High & Low Weather Summary

 TemperatureHumidityPressure
High63 °F (Mar 26, 5:00 PM)93% (Apr 1, 5:00 AM)30.54 "Hg (Apr 1, 5:00 AM)
Low27 °F (Mar 20, 5:00 AM)32% (Mar 18, 3:00 PM)29.41 "Hg (Mar 31, 3:00 PM)
Average46 °F65%29.98 "Hg
* Reported Mar 17 8:00 AM — Apr 1 9:00 AM, Bruck an der Leitha, Weather by CustomWeather, © 2015

Note: Actual official high and low records may vary slightly from our data, if they occured in-between our weather recording intervals... More about our weather records

Advertising

Bruck an der Leitha weather history for previous 24 hours

 ConditionsComfort  
Time TempWeatherWind HumidityBarometerVisibility
9:00 AM
Wed, Apr 1
40 °FSprinkles. Overcast.10 mph71%29.86 "Hg7 mi
8:00 AM41 °FOvercast.13 mph64%29.81 "Hg31 mi
7:00 AM41 °FOvercast.10 mph74%29.79 "Hg31 mi
6:00 AM37 °FOvercast.N/A91%29.78 "Hg31 mi
5:00 AM36 °FRain showers. Overcast.6 mph93%29.79 "Hg3 mi
4:00 AM46 °FOvercast.13 mph61%29.73 "Hg28 mi
3:00 AM47 °FPassing clouds.12 mph57%29.73 "Hg31 mi
2:00 AM47 °FPassing clouds.12 mph55%29.73 "Hg31 mi
1:00 AM47 °FOvercast.12 mph57%29.74 "Hg31 mi
12:00 AM48 °FPassing clouds.15 mph56%29.70 "Hg31 mi
10:00 PM
Tue, Mar 31
49 °FOvercast.13 mph61%29.67 "Hg31 mi
9:00 PM48 °FOvercast.10 mph78%29.63 "Hg31 mi
8:00 PM51 °FOvercast.9 mph71%29.57 "Hg28 mi
7:00 PM51 °FSprinkles. Overcast.13 mph82%29.55 "Hg2 mi
6:00 PM56 °FRain showers. Overcast.13 mph62%29.47 "Hg25 mi
5:00 PM56 °FOvercast.12 mph68%29.44 "Hg28 mi
4:00 PM58 °FOvercast.9 mph66%29.44 "Hg19 mi
3:00 PM62 °FOvercast.14 mph49%29.41 "Hg22 mi
2:00 PM57 °FOvercast.8 mph58%29.44 "Hg25 mi
1:00 PM53 °FOvercast.12 mph65%29.47 "Hg22 mi
12:00 PM47 °FLight rain. Overcast.13 mph78%29.50 "Hg22 mi
11:00 AM44 °FLight rain. Overcast.15 mph79%29.57 "Hg28 mi
10:00 AM40 °FLight rain. Overcast.13 mph90%29.62 "Hg8 mi
Weather by CustomWeather, © 2015

See weather overviewHow to use our weather pages